C/2020 V2 ( ZTF )

Japanese version
Home page
Updated on January 23, 2021

---------------------------------------------------------------------

* Profile

Discovery Date November 2, 2020
Magnitude 19.0 mag
Discoverer Zwicky Transient Facility

* Pictures

* Orbital Elements

Epoch 2023 May 16.0 TT = JDT 2460080.5                                          
T 2023 May 8.21459 TT                                   Veres                   
q   2.2273664            (2000.0)            P               Q                  
z  -0.0006836      Peri.  162.41749     +0.69773215     +0.59407731             
 +/-0.0000607      Node   212.37150     +0.53388729     -0.05865878             
e   1.0015227      Incl.  131.61188     +0.47763397     -0.80226635             
From 120 observations 2020 Apr. 18-Nov. 26, mean residual 0".3.                 

* Finding Charts

* Magnitudes Graph

        m1 = 4.5 + 5 log d + 10.0 log r

---------------------------------------------------------------------

The orbital elements are published on M.P.E.C. 2020-W177.
The charts are made with StellaNavigator Ver.10 (AstroArts).
The magnitudes graphs are made with Comet for Windows.

---------------------------------------------------------------------

Copyright(C) Seiichi Yoshida (comet@aerith.net). All rights reserved.